This is the latest recevied weather packets stored in our database for station/object N4OOJ-13. If no packets are shown the sender has not sent any weather packets the latest 10 day(s).
| Time | Temp. | Humidity | Pressure | Rain* | Wind** | Luminosity | Snow |
|---|---|---|---|---|---|---|---|
| 1777565419 | 22.78° C | 81% | 1011 hPa | 0 mm | - | - | - |
| 1777564819 | 22.78° C | 82% | 1011 hPa | 0 mm | - | - | - |
| 1777564233 | 23.33° C | 82% | 1011.1 hPa | 0 mm | - | - | - |
| 1777563633 | 22.78° C | 85% | 1011.3 hPa | 0 mm | - | - | - |
| 1777563031 | 22.22° C | 87% | 1011.3 hPa | 0 mm | - | - | - |
| 1777562431 | 22.22° C | 88% | 1011.6 hPa | 0 mm | - | - | - |
| 1777561824 | 22.22° C | 89% | 1011.6 hPa | 0 mm | - | - | - |
| 1777561219 | 22.22° C | 91% | 1011.6 hPa | 0 mm | - | - | - |
| 1777560618 | 21.67° C | 93% | 1011.6 hPa | 0 mm | - | - | - |
| 1777560025 | 21.67° C | 94% | 1011.7 hPa | 0 mm | - | - | - |
| 1777559418 | 21.67° C | 93% | 1011.7 hPa | 0 mm | - | - | - |
| 1777558819 | 21.67° C | 94% | 1011.9 hPa | 0.25 mm | - | - | - |
| 1777558232 | 21.67° C | 94% | 1011.7 hPa | 0.25 mm | - | - | - |
| 1777557627 | 21.67° C | 96% | 1011.8 hPa | 0.51 mm | - | - | - |
| 1777557021 | 21.11° C | 99% | 1011.8 hPa | 0.51 mm | - | - | - |
| 1777556421 | 20° C | 99% | 1011.9 hPa | 0.51 mm | - | - | - |
| 1777555821 | 20° C | 99% | 1012 hPa | 0.76 mm | - | - | - |
| 1777555222 | 19.44° C | 99% | 1012.2 hPa | 0.51 mm | - | - | - |
| 1777554616 | 19.44° C | 99% | 1012.2 hPa | 0.51 mm | - | - | - |
| 1777554016 | 18.89° C | 99% | 1012.1 hPa | 0.25 mm | - | - | - |
| 1777553422 | 18.89° C | 99% | 1012 hPa | 0.25 mm | - | - | - |
| 1777552816 | 18.89° C | 99% | 1012 hPa | 0.25 mm | - | - | - |
| 1777552229 | 19.44° C | 99% | 1011.9 hPa | 0 mm | - | - | - |
| 1777551618 | 19.44° C | 99% | 1011 hPa | 0 mm | - | - | - |
| 1777551018 | 19.44° C | 99% | 1010.5 hPa | 0.25 mm | - | - | - |
* Rain latest hour (hover to see other rain measurements)
** Current wind speed in m/s (hover to see current wind gust speed)